STARLINK-1876 (47161 NORAD) Tracking and Keplerian Element Data
This shows tracking and keplerian element data for the satellite.
Feedback or suggestion? Click here.
Element | Value |
Catalog | 47161 |
Name | STARLINK-1876 |
Epoch Orbit | 180 |
Epoch Day | 60.91667824 |
Epoch Year | 2021 |
RAAN | 243.7394 |
Inclination | 53.057 |
Eccentricity | 0.000141 |
Argument of Perigee | 69.1569 |
Mean Anonmoly | 131.4377 |
Mean Motion | 15.06810516 |
Decay Rate | -0.0056352 |
L1 | 1 47161U 20088AR 21060.91667824 -.00563520 00000-0 -39982-1 0 9994 |
L2 | 2 47161 53.0570 243.7394 0001410 69.1569 131.4377 15.06810516 1803 |
Live tracking and technical data element details for STARLINK-1876 (NORAD 47161). STARLINK-1876 can be tracked NOW for your location showing map with azimuth and elevation plus other details from your city location.
Track the satellite on the map from your city or location and see movement details for azimuth, elevation, latitude, longitude, range, height, and movement on the map or in text.
IsCatalogInMostPopularTable: catalog: 47161, numindb: 32
Update: records affected: 1
GetName: 47161 STARLINK-1876
Hit Count: updated at: Tue, 02 Mar 2021 14:26:40 GMT